This is the latest recevied weather packets stored in our database for station/object CT1ETE-13. If no packets are shown the sender has not sent any weather packets the latest 10 day(s).
| Time | Temp. | Humidity | Pressure | Rain* | Wind** | Luminosity | Snow |
|---|---|---|---|---|---|---|---|
| 1777171540 | 17.78° C | 64% | 1016.4 hPa | 0 mm | - | - | - |
| 1777170640 | 17.78° C | 68% | 1016.5 hPa | 0 mm | - | - | - |
| 1777169738 | 17.22° C | 71% | 1016.5 hPa | 0 mm | - | - | - |
| 1777168838 | 17.22° C | 78% | 1016.5 hPa | 0 mm | - | - | - |
| 1777167999 | 17.22° C | 78% | 1016.5 hPa | 0 mm | - | - | - |
| 1777167039 | 16.67° C | 79% | 1016.5 hPa | 0 mm | - | - | - |
| 1777166139 | 16.67° C | 79% | 1016.6 hPa | 0 mm | - | - | - |
| 1777165299 | 17.22° C | 78% | 1016.7 hPa | 0 mm | - | - | - |
| 1777164397 | 17.22° C | 77% | 1016.7 hPa | 0 mm | - | - | - |
| 1777163435 | 17.22° C | 78% | 1016.7 hPa | 0 mm | - | - | - |
| 1777162534 | 17.22° C | 77% | 1016.8 hPa | 0 mm | - | - | - |
| 1777161634 | 17.22° C | 77% | 1016.8 hPa | 0 mm | - | - | - |
| 1777160735 | 17.22° C | 77% | 1016.9 hPa | 0 mm | - | - | - |
| 1777159833 | 17.78° C | 76% | 1016.9 hPa | 0 mm | - | - | - |
| 1777158932 | 18.33° C | 73% | 1016.9 hPa | 0 mm | - | - | - |
| 1777158032 | 18.33° C | 72% | 1017 hPa | 0 mm | - | - | - |
| 1777157189 | 18.33° C | 72% | 1016.9 hPa | 0 mm | - | - | - |
| 1777156228 | 18.33° C | 72% | 1017 hPa | 0 mm | - | - | - |
| 1777155328 | 18.89° C | 72% | 1016.9 hPa | 0 mm | - | - | - |
| 1777154431 | 18.89° C | 71% | 1016.9 hPa | 0 mm | - | - | - |
| 1777153525 | 18.89° C | 70% | 1016.9 hPa | 0 mm | - | - | - |
| 1777152682 | 19.44° C | 69% | 1016.9 hPa | 0 mm | - | - | - |
| 1777151722 | 19.44° C | 67% | 1017 hPa | 0 mm | - | - | - |
| 1777150823 | 19.44° C | 67% | 1016.8 hPa | 0 mm | - | - | - |
| 1777149922 | 20° C | 66% | 1016.7 hPa | 0 mm | - | - | - |
* Rain latest hour (hover to see other rain measurements)
** Current wind speed in m/s (hover to see current wind gust speed)